Location: Walnut Point State Park
(39.6958°N, 88.0345°W)
Time: 15:31:17
(UTC-05:00)

Amateur Radio Satellites - All Passes

Search period start: 30 March 2017 15:01
Search period end: 31 March 2017 15:01
Location: Walnut Point State Park, 39.6958°N, 88.0345°W

Satellite Date Start Highest point End Downlink Frequencies (MHz)
Time Altitude Azimuth
DX 1 30 Mar 15:25:04 15:25:57 11° 299° (WNW) 15:26:49 434.975-435.025
SO-50 30 Mar 15:30:22 15:33:37 19° 316° (NW) 15:36:51 436.795
AO-7 30 Mar 15:38:42 15:47:03 83° 253° (WSW) 15:55:24 .
MOZHAYETS 4 30 Mar 15:42:14 15:46:09 28° 96° (E) 15:50:03
RS-15 30 Mar 15:55:19 16:04:45 24° 340° (NNW) 16:14:17 29.354- 29.394
BEESAT 30 Mar 16:04:32 16:09:18 73° 286° (WNW) 16:14:01 436.000
ITAMSAT 1 30 Mar 16:06:26 16:11:10 35° 262° (W) 16:15:57 435.822/435.867
O/OREOS (USA 219) 30 Mar 16:16:02 16:20:32 71° 109° (ESE) 16:25:06 437.305
PCSat 30 Mar 16:23:07 16:25:01 12° 39° (NE) 16:26:54 145.827
ITUPSAT 1 30 Mar 16:24:01 16:28:35 47° 289° (WNW) 16:33:07 437.325
KKS-1 30 Mar 16:28:15 16:31:10 17° 93° (E) 16:34:06 437.445
CUBESAT XI-V 30 Mar 16:46:41 16:50:22 23° 94° (E) 16:54:01 437.345
CUTE-I 30 Mar 16:51:49 16:54:17 13° 60° (ENE) 16:56:45 437.470
STARS 30 Mar 16:52:23 16:54:27 13° 91° (E) 16:56:29 437.465
YUBILEINY 30 Mar 17:00:29 17:05:57 18° 63° (ENE) 17:11:23 435.215
DOVE 4 30 Mar 17:02:02 17:05:35 21° 65° (ENE) 17:09:16 437.250
XW-2F 30 Mar 17:05:56 17:06:52 11° 65° (ENE) 17:07:48 145.980 - 146.000
LilacSat-2 30 Mar 17:14:13 17:16:28 15° 67° (ENE) 17:18:43 437.200
NUDT-PHONESAT 30 Mar 17:17:07 17:18:38 12° 66° (ENE) 17:20:08 437.300
MOZHAYETS 4 30 Mar 17:19:24 17:23:13 27° 291° (WNW) 17:27:01
KAITUO 1B 30 Mar 17:29:14 17:31:43 17° 68° (ENE) 17:34:12 145.475/437.950
XW-2D 30 Mar 17:32:27 17:35:33 24° 70° (ENE) 17:38:38 145.860 - 145.880
AO-7 30 Mar 17:36:33 17:40:54 15° 270° (W) 17:45:15 .
XW-2B 30 Mar 17:38:20 17:41:35 27° 71° (ENE) 17:44:49 145.730 - 145.750
XW-2C 30 Mar 17:48:25 17:51:56 37° 73° (ENE) 17:55:27 145.795 - 145.815
O/OREOS (USA 219) 30 Mar 17:58:27 18:00:28 13° 307° (NW) 18:02:31 437.305
Tancredo 1 30 Mar 18:02:37 18:03:47 12° 129° (SE) 18:04:57 437.200
KKS-1 30 Mar 18:03:40 18:07:55 42° 288° (WNW) 18:12:07 437.445
PCSat 30 Mar 18:04:05 18:09:30 64° 59° (ENE) 18:14:53 145.827
RS-15 30 Mar 18:14:15 18:23:27 23° 16° (NNE) 18:32:29 29.354- 29.394
ISS 30 Mar 18:22:57 18:25:11 17° 131° (SE) 18:27:26 437.550
CUBESAT XI-V 30 Mar 18:23:33 18:27:46 34° 290° (WNW) 18:31:58 437.345
STARS 30 Mar 18:26:47 18:31:06 54° 287° (WNW) 18:35:22 437.465
CUTE-I 30 Mar 18:28:12 18:33:35 83° 257° (WSW) 18:39:00 437.470
HO-68 30 Mar 18:36:26 18:42:47 36° 64° (ENE) 18:49:09 435.675
XW-2F 30 Mar 18:36:51 18:40:32 51° 260° (W) 18:44:14 145.980 - 146.000
DOVE 4 30 Mar 18:38:19 18:42:52 44° 263° (W) 18:47:42 437.250
CUBEBUG 2 30 Mar 18:45:22 18:47:03 12° 63° (ENE) 18:48:45 437.445
LilacSat-2 30 Mar 18:46:56 18:50:27 35° 262° (W) 18:53:58 437.200
NUDT-PHONESAT 30 Mar 18:48:34 18:52:09 43° 261° (W) 18:55:44 437.300
M-CUBED/EXP-1 PRIME 30 Mar 18:50:01 18:53:59 27° 100° (E) 18:57:54 437.505
YUBILEINY 30 Mar 18:55:16 19:04:02 88° 85° (E) 19:12:47 435.215
KAITUO 1B 30 Mar 19:02:13 19:05:30 29° 263° (W) 19:08:49 145.475/437.950
AAUSAT CUBESAT 2 30 Mar 19:05:39 19:06:41 11° 63° (ENE) 19:07:44 437.432
XW-2D 30 Mar 19:06:45 19:09:40 21° 265° (W) 19:12:36 145.860 - 145.880
XW-2B 30 Mar 19:13:04 19:15:46 18° 266° (W) 19:18:28 145.730 - 145.750
XW-2A 30 Mar 19:20:20 19:23:45 68° 76° (ENE) 19:27:11 145.665 - 145.685
XW-2C 30 Mar 19:24:17 19:26:16 14° 268° (W) 19:28:15 145.795 - 145.815
STRAND 1 30 Mar 19:29:50 19:34:03 26° 95° (E) 19:38:14 437.568
AO-85 30 Mar 19:30:03 19:34:08 35° 115° (ESE) 19:37:58 145.980
SEEDS 30 Mar 19:31:56 19:35:54 45° 73° (ENE) 19:39:53 437.485
UWE-3 30 Mar 19:35:51 19:39:33 24° 68° (ENE) 19:43:12 435.000/436.395/437.385
Tancredo 1 30 Mar 19:36:22 19:39:29 65° 324° (NW) 19:42:37 437.200
CUTE 1.7 + AOD 2 30 Mar 19:47:34 19:51:45 73° 259° (WSW) 19:55:58 437.475
PCSat 30 Mar 19:48:59 19:52:19 17° 256° (WSW) 19:55:38 145.827
Oscar 11 30 Mar 19:51:12 19:53:36 15° 65° (ENE) 19:56:00 .
ISS 30 Mar 19:58:15 20:01:24 47° 327° (NNW) 20:04:35 437.550
ZACube-1 30 Mar 20:05:44 20:09:35 28° 70° (ENE) 20:13:23 437.345
CUBEBUG 2 30 Mar 20:18:17 20:23:02 76° 258° (WSW) 20:27:45 437.445
HO-68 30 Mar 20:23:39 20:30:20 43° 261° (W) 20:37:06 435.675
M-CUBED/EXP-1 PRIME 30 Mar 20:24:12 20:28:21 32° 296° (WNW) 20:32:27 437.505
RS-15 30 Mar 20:27:51 20:39:51 53° 47° (NE) 20:51:18 29.354- 29.394
AO-73 30 Mar 20:30:45 20:35:05 47° 74° (ENE) 20:39:21 145.935
AAUSAT CUBESAT 2 30 Mar 20:37:33 20:41:35 62° 259° (W) 20:45:41 437.432
BEESAT 3 30 Mar 20:41:08 20:43:58 19° 111° (ESE) 20:46:51 437.485
YUBILEINY 30 Mar 20:54:26 20:59:35 17° 282° (WNW) 21:04:43 435.215
BEESAT 2 30 Mar 21:08:05 21:10:19 15° 109° (ESE) 21:12:34 435.950
STRAND 1 30 Mar 21:08:38 21:13:16 36° 291° (WNW) 21:17:52 437.568
SEEDS 30 Mar 21:09:45 21:11:49 13° 269° (W) 21:13:53 437.485
AO-85 30 Mar 21:11:04 21:14:34 23° 311° (NW) 21:17:54 145.980
UWE-3 30 Mar 21:11:38 21:15:49 33° 263° (W) 21:19:57 435.000/436.395/437.385
Tancredo 1 30 Mar 21:14:14 21:16:05 14° 343° (NNW) 21:17:56 437.200
DELFI C3 30 Mar 21:14:52 21:18:25 34° 72° (ENE) 21:21:59 145.870
Oscar 11 30 Mar 21:25:08 21:29:18 48° 261° (W) 21:33:30 .
ISS 30 Mar 21:36:47 21:38:30 13° 346° (NNW) 21:40:13 437.550
PRISM 30 Mar 21:40:41 21:43:42 19° 94° (E) 21:46:42 437.425
ZACube-1 30 Mar 21:42:01 21:45:48 26° 265° (W) 21:49:32 437.345
AO-73 30 Mar 22:08:53 22:11:31 15° 268° (W) 22:14:08 145.935
TIGRISAT 30 Mar 22:09:35 22:12:45 20° 93° (E) 22:15:52 435.000
BEESAT 3 30 Mar 22:17:44 22:21:19 34° 308° (NW) 22:24:59 437.485
SO-50 30 Mar 22:20:22 22:24:39 41° 53° (NE) 22:28:53 436.795
UNISAT 6 30 Mar 22:20:47 22:24:34 28° 96° (E) 22:28:15 437.425
RS-15 30 Mar 22:40:50 22:52:18 50° 251° (WSW) 23:03:15 29.354- 29.394
BEESAT 2 30 Mar 22:43:53 22:47:41 45° 306° (NW) 22:51:33 435.950
DELFI C3 30 Mar 22:50:50 22:53:18 16° 267° (W) 22:55:47 145.870
ESTCUBE 1 30 Mar 22:52:30 22:56:25 31° 70° (ENE) 23:00:21 437.505/2401.250
LO-87 30 Mar 22:55:54 22:59:28 62° 76° (ENE) 23:03:04 145.935 - 145.965
ISS 30 Mar 23:15:08 23:16:07 11° 6° (N) 23:17:05 437.550
PRISM 30 Mar 23:15:17 23:19:02 33° 289° (WNW) 23:22:46 437.425
FO-29 30 Mar 23:15:38 23:21:21 61° 100° (E) 23:26:33 435.910
AIST 2D 30 Mar 23:22:16 23:24:22 15° 93° (E) 23:26:28 435.315
EO-79 30 Mar 23:28:48 23:30:05 11° 90° (E) 23:31:23 145.935-145.965
50 SAT 30 Mar 23:29:38 23:30:08 10° 65° (ENE) 23:30:38 437.505
VELOX 1 30 Mar 23:43:43 23:47:40 33° 70° (ENE) 23:51:39 145.980
TIGRISAT 30 Mar 23:45:36 23:49:32 34° 289° (WNW) 23:53:22 435.000
SPROUT 30 Mar 23:51:10 23:55:03 34° 71° (ENE) 23:58:57 437.525
POLYITAN 1 30 Mar 23:56:36 00:00:03 24° 95° (E) 00:03:29 437.675
UNISAT 6 30 Mar 23:57:39 00:01:08 24° 292° (WNW) 00:04:34 437.425
QB50P2 31 Mar 00:01:16 00:05:00 30° 97° (E) 00:08:42 145.880/145.840
SO-50 31 Mar 00:01:29 00:04:48 20° 249° (WSW) 00:08:07 436.795
DUCHIFAT 1 31 Mar 00:05:58 00:09:28 25° 96° (E) 00:12:56 145.980
Tancredo 1 31 Mar 00:27:57 00:30:22 19° 23° (NNE) 00:32:45 437.200
ESTCUBE 1 31 Mar 00:29:39 00:33:13 23° 265° (W) 00:36:47 437.505/2401.250
DX 1 31 Mar 00:40:22 00:44:37 57° 74° (ENE) 00:48:55 434.975-435.025
O/OREOS (USA 219) 31 Mar 00:49:18 00:51:33 13° 53° (NE) 00:53:46 437.305
ISS 31 Mar 00:50:41 00:53:29 25° 26° (NNE) 00:56:17 437.550
NANOSAT C BR1 31 Mar 00:54:12 00:58:26 77° 284° (WNW) 01:02:36 145.865
AIST 2D 31 Mar 00:54:38 00:57:37 27° 288° (WNW) 01:00:36 435.315
50 SAT 31 Mar 00:59:26 01:02:43 43° 260° (W) 01:06:03 437.505
EO-79 31 Mar 01:02:03 01:06:12 56° 286° (WNW) 01:10:19 145.935-145.965
FO-29 31 Mar 01:02:07 01:05:47 18° 301° (WNW) 01:09:15 435.910
UKube-1 31 Mar 01:10:20 01:14:39 87° 69° (ENE) 01:18:59 .
VELOX 1 31 Mar 01:20:48 01:24:10 21° 266° (W) 01:27:33 145.980
SPROUT 31 Mar 01:27:52 01:31:01 20° 266° (W) 01:34:11 437.525
POLYITAN 1 31 Mar 01:32:15 01:35:47 26° 291° (WNW) 01:39:16 437.675
BEESAT 31 Mar 01:35:12 01:37:24 13° 61° (ENE) 01:39:35 436.000
BUGSAT 1 31 Mar 01:36:55 01:41:05 86° 285° (WNW) 01:45:10 437.445
QB50P2 31 Mar 01:37:22 01:40:37 22° 292° (WNW) 01:43:51 145.880/145.840
Gurwin Techsat 1B 31 Mar 01:37:45 01:40:56 16° 91° (E) 01:44:05 435.225
DUCHIFAT 1 31 Mar 01:41:37 01:45:03 25° 291° (WNW) 01:48:28 145.980
ITUPSAT 1 31 Mar 01:53:26 01:56:50 20° 65° (ENE) 02:00:14 437.325
Tancredo 1 31 Mar 02:03:33 02:06:42 64° 220° (SW) 02:09:51 437.200
DX 1 31 Mar 02:19:28 02:21:09 12° 269° (W) 02:22:50 434.975-435.025
Oscar 19 31 Mar 02:21:27 02:26:39 75° 103° (ESE) 02:31:50 437.125/150
O/OREOS (USA 219) 31 Mar 02:26:52 02:31:28 69° 250° (WSW) 02:36:01 437.305
ISS 31 Mar 02:26:55 02:30:03 42° 224° (SW) 02:33:11 437.550
MOZHAYETS 4 31 Mar 02:43:25 02:47:09 25° 68° (ENE) 02:50:52
BEESAT 31 Mar 03:09:49 03:14:34 70° 258° (WSW) 03:19:21 436.000
Gurwin Techsat 1B 31 Mar 03:16:01 03:21:16 61° 288° (WNW) 03:26:30 435.225
KKS-1 31 Mar 03:26:02 03:28:38 15° 64° (ENE) 03:31:14 437.445
ITUPSAT 1 31 Mar 03:29:46 03:34:20 44° 261° (W) 03:38:54 437.325
AO-7 31 Mar 03:41:42 03:49:07 35° 98° (E) 03:56:29 .
STARS 31 Mar 03:49:05 03:50:38 12° 62° (ENE) 03:52:12 437.465
CUBESAT XI-V 31 Mar 03:49:32 03:52:54 21° 66° (ENE) 03:56:16 437.345
AO-85 31 Mar 04:02:00 04:05:10 23° 49° (NE) 04:08:24 145.980
Oscar 19 31 Mar 04:02:42 04:05:18 14° 299° (WNW) 04:07:55 437.125/150
ITAMSAT 1 31 Mar 04:19:26 04:24:40 87° 103° (ESE) 04:29:51 435.822/435.867
MOZHAYETS 4 31 Mar 04:20:06 04:24:09 30° 264° (W) 04:28:13
NO-84 31 Mar 04:21:43 04:23:05 12° 126° (SE) 04:24:24 435.350 FM
BEESAT 3 31 Mar 04:59:00 05:00:40 12° 42° (NE) 05:02:20 437.485
KKS-1 31 Mar 05:00:23 05:04:43 51° 259° (W) 05:09:07 437.445
STARS 31 Mar 05:21:59 05:26:23 69° 258° (WSW) 05:30:50 437.465
CUBESAT XI-V 31 Mar 05:25:44 05:30:00 38° 263° (W) 05:34:18 437.345
BEESAT 2 31 Mar 05:27:25 05:27:38 10° 40° (NE) 05:27:51 435.950
AO-7 31 Mar 05:34:08 05:42:03 51° 295° (WNW) 05:49:57 .
M-CUBED/EXP-1 PRIME 31 Mar 05:35:21 05:38:33 25° 63° (ENE) 05:41:57 437.505
AO-85 31 Mar 05:42:04 05:45:33 30° 245° (WSW) 05:49:09 145.980
NO-84 31 Mar 05:57:33 06:00:19 40° 320° (NW) 06:03:03 435.350 FM
ITAMSAT 1 31 Mar 06:01:28 06:03:21 12° 301° (WNW) 06:05:15 435.822/435.867
YUBILEINY 31 Mar 06:01:49 06:07:38 20° 79° (E) 06:13:27 435.215
XW-2F 31 Mar 06:10:48 06:13:07 16° 93° (E) 06:15:26 145.980 - 146.000
NUDT-PHONESAT 31 Mar 06:20:40 06:23:06 17° 94° (E) 06:25:32 437.300
LilacSat-2 31 Mar 06:21:03 06:24:06 23° 95° (E) 06:27:08 437.200
KAITUO 1B 31 Mar 06:34:06 06:37:12 25° 96° (E) 06:40:17 145.475/437.950
BEESAT 3 31 Mar 06:34:46 06:38:48 79° 240° (WSW) 06:42:47 437.485
DOVE 4 31 Mar 06:37:37 06:42:50 58° 99° (E) 06:47:52 437.250
XW-2D 31 Mar 06:39:08 06:42:40 38° 98° (E) 06:46:10 145.860 - 145.880
STRAND 1 31 Mar 06:44:44 06:49:21 34° 69° (ENE) 06:53:58 437.568
XW-2B 31 Mar 06:45:09 06:48:46 44° 99° (E) 06:52:21 145.730 - 145.750
CUTE-I 31 Mar 06:46:17 06:51:21 42° 99° (E) 06:56:21 437.470
XW-2C 31 Mar 06:55:30 06:59:13 62° 100° (E) 07:02:56 145.795 - 145.815
BEESAT 2 31 Mar 07:02:02 07:06:06 78° 57° (ENE) 07:10:08 435.950
M-CUBED/EXP-1 PRIME 31 Mar 07:09:47 07:12:55 24° 261° (W) 07:16:16 437.505
AO-7 31 Mar 07:30:57 07:32:52 11° 317° (NW) 07:34:48 .
CUTE 1.7 + AOD 2 31 Mar 07:33:53 07:37:00 20° 94° (E) 07:40:07 437.475
XW-2F 31 Mar 07:44:01 07:47:20 31° 288° (WNW) 07:50:38 145.980 - 146.000
HO-68 31 Mar 07:51:47 07:58:26 40° 98° (E) 08:05:04 435.675
NUDT-PHONESAT 31 Mar 07:53:53 07:57:03 28° 289° (WNW) 08:00:12 437.300
YUBILEINY 31 Mar 07:54:37 08:03:21 79° 278° (W) 08:12:07 435.215
LilacSat-2 31 Mar 07:55:21 07:58:16 22° 291° (WNW) 08:01:11 437.200
KAITUO 1B 31 Mar 08:08:23 08:11:04 19° 291° (WNW) 08:13:44 145.475/437.950
CUBEBUG 2 31 Mar 08:10:53 08:14:18 23° 94° (E) 08:17:39 437.445
XW-2D 31 Mar 08:14:35 08:16:31 14° 294° (WNW) 08:18:26 145.860 - 145.880
XW-2A 31 Mar 08:15:41 08:19:04 83° 102° (ESE) 08:22:23 145.665 - 145.685
DOVE 4 31 Mar 08:16:28 08:19:58 18° 296° (WNW) 08:23:26 437.250
AAUSAT CUBESAT 2 31 Mar 08:20:58 08:24:07 21° 94° (E) 08:27:17 437.432
XW-2B 31 Mar 08:21:03 08:22:33 12° 294° (WNW) 08:24:03 145.730 - 145.750
STRAND 1 31 Mar 08:24:11 08:28:31 27° 264° (W) 08:32:52 437.568
CUTE-I 31 Mar 08:26:53 08:31:07 25° 295° (WNW) 08:35:21 437.470
PRISM 31 Mar 08:30:22 08:32:14 13° 64° (ENE) 08:34:07 437.425
PCSat 31 Mar 08:44:35 08:49:57 71° 115° (ESE) 08:55:22 145.827
SEEDS 31 Mar 08:51:39 08:55:51 79° 284° (WNW) 09:00:04 437.485
UWE-3 31 Mar 09:01:44 09:05:53 52° 100° (E) 09:09:56 435.000/436.395/437.385
TIGRISAT 31 Mar 09:07:29 09:10:39 18° 66° (ENE) 09:13:46 435.000
CUTE 1.7 + AOD 2 31 Mar 09:09:06 09:12:52 32° 289° (WNW) 09:16:39 437.475
Oscar 11 31 Mar 09:13:10 09:16:59 30° 96° (E) 09:20:48 .
UNISAT 6 31 Mar 09:18:33 09:22:22 25° 68° (ENE) 09:26:08 437.425
FO-29 31 Mar 09:25:31 09:31:59 31° 65° (ENE) 09:38:01 435.910
ZACube-1 31 Mar 09:30:18 09:34:28 63° 101° (E) 09:38:34 437.345
HO-68 31 Mar 09:39:34 09:46:05 39° 295° (WNW) 09:52:35 435.675
CUBEBUG 2 31 Mar 09:47:12 09:50:55 28° 291° (WNW) 09:54:31 437.445
AO-73 31 Mar 09:55:31 09:59:40 71° 285° (WNW) 10:03:46 145.935
AAUSAT CUBESAT 2 31 Mar 09:55:57 09:59:35 30° 289° (WNW) 10:03:13 437.432
YUBILEINY 31 Mar 09:56:57 10:01:40 15° 299° (WNW) 10:06:25 435.215
PRISM 31 Mar 10:03:06 10:07:03 51° 260° (W) 10:11:04 437.425
DELFI C3 31 Mar 10:26:49 10:30:47 64° 100° (E) 10:34:45 145.870
PCSat 31 Mar 10:30:05 10:33:53 19° 314° (NW) 10:37:43 145.827
UWE-3 31 Mar 10:39:52 10:41:51 13° 296° (WNW) 10:43:49 435.000/436.395/437.385
TIGRISAT 31 Mar 10:42:29 10:46:58 45° 261° (W) 10:51:26 435.000
POLYITAN 1 31 Mar 10:48:49 10:51:42 18° 66° (ENE) 10:54:35 437.675
Oscar 11 31 Mar 10:49:37 10:52:56 22° 292° (WNW) 10:56:16 .
RS-15 31 Mar 10:51:02 11:01:02 33° 103° (ESE) 11:11:17 29.354- 29.394
QB50P2 31 Mar 10:53:19 10:56:33 21° 68° (ENE) 10:59:48 145.880/145.840
UNISAT 6 31 Mar 10:54:45 10:58:54 32° 263° (W) 11:03:03 437.425
NO-84 31 Mar 10:55:43 10:56:28 11° 26° (NNE) 10:57:12 435.350 FM
DUCHIFAT 1 31 Mar 10:57:24 11:00:18 18° 66° (ENE) 11:03:12 145.980
FO-29 31 Mar 11:09:04 11:16:39 55° 260° (W) 11:23:42 435.910
ZACube-1 31 Mar 11:09:08 11:10:10 11° 297° (WNW) 11:11:12 437.345
AIST 2D 31 Mar 11:27:22 11:30:53 85° 78° (ENE) 11:34:25 435.315
NANOSAT C BR1 31 Mar 11:44:52 11:49:07 68° 74° (ENE) 11:53:21 145.865
EO-79 31 Mar 11:52:57 11:57:14 88° 263° (W) 12:01:31 145.935-145.965
LO-87 31 Mar 11:56:58 12:00:38 89° 88° (E) 12:04:15 145.935 - 145.965
Oscar 19 31 Mar 12:01:58 12:03:58 12° 60° (ENE) 12:05:59 437.125/150
DELFI C3 31 Mar 12:04:55 12:05:00 10° 297° (WNW) 12:05:05 145.870
ESTCUBE 1 31 Mar 12:21:35 12:26:07 77° 102° (ESE) 12:30:38 437.505/2401.250
POLYITAN 1 31 Mar 12:23:09 12:27:11 39° 262° (W) 12:31:12 437.675
BUGSAT 1 31 Mar 12:25:09 12:29:18 57° 74° (ENE) 12:33:29 437.445
50 SAT 31 Mar 12:25:56 12:27:14 12° 92° (E) 12:28:31 437.505
QB50P2 31 Mar 12:28:19 12:32:08 32° 263° (W) 12:35:59 145.880/145.840
NO-84 31 Mar 12:31:22 12:34:26 71° 43° (NE) 12:37:46 435.350 FM
DUCHIFAT 1 31 Mar 12:31:43 12:35:40 38° 262° (W) 12:39:39 145.980
DX 1 31 Mar 12:32:20 12:32:57 10° 90° (E) 12:33:33 434.975-435.025
SO-50 31 Mar 12:35:19 12:38:07 16° 109° (ESE) 12:40:53 436.795
Gurwin Techsat 1B 31 Mar 12:57:41 13:01:55 25° 65° (ENE) 13:06:09 435.225
UKube-1 31 Mar 12:59:28 13:01:59 15° 93° (E) 13:04:30 .
RS-15 31 Mar 13:00:29 13:12:29 73° 305° (NW) 13:24:55 29.354- 29.394
VELOX 1 31 Mar 13:10:09 13:14:38 76° 103° (ESE) 13:19:05 145.980
SPROUT 31 Mar 13:12:54 13:17:11 74° 102° (ESE) 13:21:25 437.525
Oscar 19 31 Mar 13:37:26 13:42:33 83° 257° (WSW) 13:47:43 437.125/150
50 SAT 31 Mar 13:57:09 14:00:24 36° 287° (WNW) 14:03:39 437.505
ITAMSAT 1 31 Mar 13:59:48 14:02:51 16° 61° (ENE) 14:05:53 435.822/435.867
ESTCUBE 1 31 Mar 14:01:11 14:02:15 11° 298° (WNW) 14:03:20 437.505/2401.250
BUGSAT 1 31 Mar 14:03:33 14:04:59 11° 269° (W) 14:06:27 437.445
DX 1 31 Mar 14:05:10 14:09:33 67° 285° (WNW) 14:13:52 434.975-435.025
SO-50 31 Mar 14:13:34 14:18:08 55° 305° (NW) 14:22:39 436.795
UKube-1 31 Mar 14:34:05 14:38:13 45° 288° (WNW) 14:42:20 .
Gurwin Techsat 1B 31 Mar 14:36:36 14:41:35 41° 261° (W) 14:46:38 435.225
AO-7 31 Mar 14:39:39 14:47:25 46° 63° (ENE) 14:55:12 .
VELOX 1 31 Mar 14:49:24 14:50:26 11° 299° (WNW) 14:51:27 145.980
SPROUT 31 Mar 14:52:21 14:52:27 10° 298° (WNW) 14:52:34 437.525
